User: anonymous   Login
Location: Albany
(35.0000°S, 118.0000°E)
Time: 05:54:19
(UTC-04:00)
Language:

Atlas Centaur 2 - Orbit

View from above orbital plane
View from above orbital plane
View from above satellite
View from above satellite

Ground track
Ground track

The orbit data is extracted from the following two-line orbital elements,

1 00694U 63047A   16121.51261765  .00000564  00000-0  63826-4 0  9997
2 00694  30.3560 274.6204 0589408  52.2574 312.9966 14.01699218624764
Epoch (UTC): 30 April 2016 12:18:10
Eccentricity: 0.0589408
inclination: 30.3560°
perigee height: 459 km
apogee height: 1316 km
right ascension of ascending node: 274.6204°
argument of perigee: 52.2574°
revolutions per day: 14.01699218
mean anomaly at epoch: 312.9966°
orbit number at epoch: 62476

The dashed part of the orbit path shows where the satellite is in the earth's shadow,  

DLR